FW0392 Weather Reports


Display with metric or nautical units.
time (UTC)temp
F
wind
direction
speed
MPH
gust
MPH
rain 1hr
in
rain 24hr
in
rain mn
in
humidity
%
barometer
mb
20260507073014 67 221 0.0 2.0 0.00 0.06 0.06 72 1012.0
20260507071509 66 236 0.0 0.0 0.00 0.06 0.06 75 1012.2
20260507070010 64 226 0.0 0.0 0.00 0.06 0.06 81 1012.2
20260507064504 63 254 0.0 0.0 0.00 0.06 0.06 85 1012.0
20260507063005 62 193 0.0 0.0 0.00 0.06 0.06 88 1011.9
20260507061600 61 211 0.0 2.0 0.00 0.06 0.06 89 1012.1
20260507060058 60 202 0.0 0.0 0.00 0.06 0.06 90 1012.0
20260507054555 60 217 0.0 0.0 0.00 0.06 0.06 91 1012.0
20260507053052 60 174 0.0 0.0 0.00 0.06 0.06 91 1011.8
20260507051520 59 213 0.0 1.0 0.00 0.06 0.06 92 1011.5
20260507050020 59 210 0.0 0.0 0.00 0.06 0.06 92 1011.4
20260507044544 59 208 0.0 0.0 0.00 0.08 0.06 92 1011.1
20260507043043 59 209 0.0 0.0 0.00 0.08 0.06 92 1011.0
20260507041512 59 210 0.0 0.0 0.00 0.08 0.06 92 1011.1
20260507040011 59 211 0.0 0.0 0.00 0.08 0.06 91 1010.8
20260507034505 60 211 0.0 0.0 0.00 0.08 0.06 91 1010.8
20260507033005 60 212 0.0 0.0 0.00 0.08 0.06 91 1010.9
20260507031504 60 212 0.0 0.0 0.00 0.08 0.06 91 1010.9
20260507030002 60 212 0.0 0.0 0.00 0.08 0.06 90 1010.7
20260507024608 61 212 0.0 0.0 0.01 0.08 0.06 90 1010.8
20260507023057 61 212 0.0 0.0 0.02 0.08 0.06 89 1010.7
20260507021559 61 212 0.0 0.0 0.04 0.08 0.06 89 1010.5
20260507020109 62 212 0.0 0.0 0.06 0.08 0.06 88 1010.7
20260507014553 62 212 0.0 0.0 0.05 0.07 0.05 86 1010.8
20260507013054 63 212 0.0 0.0 0.04 0.06 0.04 85 1010.6
20260507011545 63 211 0.0 0.0 0.02 0.04 0.02 82 1010.7
20260507010045 64 162 0.0 1.0 0.00 0.02 0.00 80 1010.6
20260507004548 64 187 0.0 1.0 0.00 0.03 0.00 78 1010.5
20260507003044 65 216 0.0 0.0 0.00 0.03 0.00 77 1010.5
20260507001544 65 200 0.0 1.0 0.00 0.03 0.00 77 1010.4
20260507000035 65 222 0.0 2.0 0.00 0.03 0.00 76 1010.7
20260506234534 65 233 0.0 3.0 0.00 0.09 0.00 75 1010.8
20260506233029 66 191 0.0 1.0 0.00 0.09 0.00 74 1010.8
20260506231528 66 179 0.0 0.0 0.00 0.09 0.00 74 1010.8
20260506230027 66 198 0.0 0.0 0.00 0.09 0.00 73 1010.8
20260506224559 66 196 0.0 0.0 0.00 0.18 0.00 73 1010.8
20260506223055 66 242 0.0 0.0 0.00 0.18 0.00 71 1010.9
20260506221551 66 242 0.0 0.0 0.00 0.18 0.00 71 1011.0
20260506220051 66 237 0.0 0.0 0.00 0.18 0.00 71 1010.9
20260506214553 66 297 0.0 0.0 0.00 0.30 0.18 71 1011.0
20260506213108 66 199 0.0 2.0 0.00 0.30 0.18 70 1010.9
20260506211518 67 315 0.0 1.0 0.00 0.30 0.18 70 1010.8
20260506210021 67 232 0.0 9.0 0.00 0.30 0.18 69 1010.8
20260506204515 67 87 0.0 9.0 0.00 0.41 0.18 70 1010.7
20260506203018 67 198 0.0 4.0 0.00 0.41 0.18 70 1010.5
20260506201514 67 249 0.0 1.0 0.00 0.41 0.18 70 1010.4
20260506200014 67 170 0.0 0.0 0.00 0.53 0.18 71 1010.4
20260506194513 67 252 0.0 0.0 0.00 0.53 0.18 71 1010.3
20260506193009 67 202 0.0 6.0 0.00 0.53 0.18 70 1010.0
20260506191509 68 24 0.0 6.0 0.00 0.53 0.18 70 1009.8
20260506190013 68 22 0.0 8.0 0.00 0.66 0.18 69 1009.6
20260506184510 68 24 0.0 5.0 0.00 0.66 0.18 69 1009.2
20260506183051 69 23 0.0 3.0 0.00 0.66 0.18 68 1009.1
20260506181602 69 18 0.0 8.0 0.00 0.66 0.18 67 1009.0
20260506180036 69 24 0.0 8.0 0.00 0.66 0.18 66 1008.8
20260506174534 70 14 0.0 3.0 0.00 0.81 0.18 65 1008.7
20260506173048 70 30 0.0 9.0 0.00 0.81 0.18 64 1008.5
20260506171533 71 27 0.0 4.0 0.00 0.81 0.18 64 1008.4
20260506170029 71 20 0.0 1.0 0.00 0.81 0.18 63 1008.5
20260506164536 72 24 0.0 4.0 0.00 0.82 0.18 62 1008.6
20260506163029 72 74 0.0 4.0 0.00 0.82 0.18 60 1008.4
20260506161529 73 243 0.0 6.0 0.00 0.82 0.18 59 1008.5
20260506160026 75 217 0.0 3.0 0.00 0.82 0.18 55 1008.7
20260506154526 75 118 0.0 5.0 0.00 0.82 0.18 56 1008.8
20260506153025 74 233 0.0 8.0 0.00 0.82 0.18 57 1008.6
20260506151525 76 189 0.0 2.0 0.00 0.82 0.18 55 1008.6
20260506150023 76 179 0.0 5.0 0.00 0.82 0.18 54 1008.4
20260506144523 76 217 0.0 9.0 0.00 0.82 0.18 53 1008.2
20260506143022 76 240 0.0 7.0 0.00 0.82 0.18 54 1008.6
20260506141517 76 117 0.0 9.0 0.00 0.82 0.18 55 1008.6
20260506140017 75 211 0.0 7.0 0.00 0.82 0.18 56 1008.9
20260506134513 76 211 0.0 7.0 0.00 0.82 0.18 55 1009.1
20260506133012 76 217 0.0 2.0 0.00 0.82 0.18 54 1009.3
20260506131508 75 209 0.0 1.0 0.00 0.82 0.18 55 1009.6
20260506130037 74 228 0.0 1.0 0.00 0.82 0.18 60 1009.6
20260506124536 74 221 0.0 1.0 0.00 0.82 0.18 61 1009.7
20260506123033 73 197 0.0 1.0 0.00 0.82 0.18 62 1009.6
20260506121533 73 130 0.0 1.0 0.00 0.82 0.18 63 1009.5
20260506120037 72 70 0.0 0.0 0.00 0.82 0.18 63 1009.6
20260506114531 72 184 0.0 1.0 0.00 0.82 0.18 63 1009.9
20260506113036 73 240 0.0 0.0 0.00 0.82 0.18 61 1010.0
20260506111528 74 248 0.0 1.0 0.00 0.82 0.18 60 1010.0
20260506110026 75 244 0.0 1.0 0.00 0.82 0.18 60 1010.1
20260506104525 74 294 0.0 1.0 0.00 0.82 0.18 61 1010.1
20260506103020 73 223 0.0 1.0 0.00 0.82 0.18 62 1010.1
20260506101516 72 268 0.0 3.0 0.00 0.82 0.18 63 1010.1
20260506100012 71 215 0.0 3.0 0.00 0.82 0.18 65 1010.2
20260506094508 70 185 0.0 4.0 0.00 0.82 0.18 67 1010.3
20260506093001 68 136 0.0 0.0 0.00 0.82 0.18 72 1010.4
20260506091601 67 200 0.0 0.0 0.00 0.82 0.18 73 1010.3
20260506090101 67 99 0.0 0.0 0.00 0.82 0.18 81 1010.3
20260506084553 65 88 0.0 0.0 0.00 0.84 0.18 84 1010.2
20260506083048 65 9 0.0 3.0 0.00 0.84 0.18 83 1010.1
20260506081546 65 11 0.0 1.0 0.00 0.84 0.18 84 1010.1